DW5678 Weather Reports


time (UTC)temp
F
wind
direction
speed
knots
gust
knots
rain 1hr
in
rain 24hr
in
rain mn
in
humidity
%
barometer
mb
20260507121805 65 244 2.6 5.2 0.00 0.00 0.00 78 1019.1
20260507115805 66 245 2.6 5.2 0.00 0.00 0.00 74 1019.1
20260507114804 67 245 1.7 5.2 0.00 0.00 0.00 75 1019.1
20260507112805 67 216 2.6 4.3 0.00 0.00 0.00 73 1019.1
20260507111805 66 217 3.5 7.0 0.00 0.00 0.00 73 1019.1
20260507105805 66 232 5.2 7.0 0.00 0.00 0.00 73 1019.0
20260507104805 66 228 4.3 6.1 0.00 0.00 0.00 72 1019.0
20260507103805 66 202 0.9 5.2 0.00 0.00 0.00 72 1018.9
20260507102804 67 228 1.7 6.1 0.00 0.00 0.00 70 1018.9
20260507101804 68 196 1.7 7.0 0.00 0.00 0.00 67 1018.9
20260507095805 67 204 0.9 5.2 0.00 0.00 0.00 63 1018.8
20260507094804 68 185 1.7 5.2 0.00 0.00 0.00 68 1018.7
20260507093804 67 207 0.9 5.2 0.00 0.00 0.00 70 1018.7
20260507092805 67 212 2.6 5.2 0.00 0.00 0.00 69 1018.7
20260507091805 67 152 1.7 5.2 0.00 0.00 0.00 72 1018.6
20260507090804 66 154 0.9 4.3 0.00 0.00 0.00 75 1018.7
20260507085804 65 143 1.7 4.3 0.00 0.00 0.00 76 1018.6
20260507084804 65 143 2.6 5.2 0.00 0.00 0.00 77 1018.6
20260507083805 66 154 2.6 5.2 0.00 0.00 0.00 74 1018.6
20260507082804 65 142 1.7 5.2 0.00 0.00 0.00 76 1018.5
20260507081805 64 214 1.7 4.3 0.00 0.00 0.00 77 1018.5
20260507080804 64 215 0.0 4.3 0.00 0.00 0.00 78 1018.6
20260507075804 64 215 0.0 2.6 0.00 0.00 0.00 78 1018.6
20260507073805 62 215 0.0 5.2 0.00 0.00 0.00 82 1018.6
20260507071805 63 217 2.6 4.3 0.00 0.00 0.00 79 1018.5
20260507070805 62 151 2.6 5.2 0.00 0.00 0.00 80 1018.4
20260507065804 63 167 1.7 5.2 0.00 0.00 0.00 80 1018.4
20260507064804 62 153 0.9 4.3 0.00 0.00 0.00 80 1018.4
20260507062804 63 184 0.9 4.3 0.00 0.00 0.00 74 1018.4
20260507061805 62 250 0.9 4.3 0.00 0.00 0.00 71 1018.2
20260507060804 63 280 0.0 2.6 0.00 0.00 0.00 69 1018.3
20260507055804 61 280 0.0 1.7 0.00 0.00 0.00 70 1018.2
20260507054804 60 281 0.9 2.6 0.00 0.00 0.00 71 1018.4
20260507052805 60 281 0.0 0.9 0.00 0.00 0.00 73 1018.3
20260507050805 60 281 0.0 2.6 0.00 0.00 0.00 74 1018.2
20260507044805 60 282 0.0 0.9 0.00 0.00 0.00 74 1018.0
20260507043804 60 282 0.0 0.0 0.00 0.00 0.00 73 1017.9
20260507041804 60 282 0.0 0.9 0.00 0.00 0.00 73 1017.8
20260507040804 59 282 0.0 0.0 0.00 0.00 0.00 74 1017.7
20260507035804 58 282 0.0 2.6 0.00 0.00 0.00 77 1017.5
20260507034804 57 282 0.0 2.6 0.00 0.00 0.00 78 1017.4
20260507033804 57 215 0.0 0.9 0.00 0.00 0.00 78 1017.4
20260507032804 57 215 0.0 0.0 0.00 0.00 0.00 78 1017.3
20260507031805 57 215 0.0 0.0 0.00 0.00 0.00 79 1017.2
20260507030804 57 215 0.0 0.9 0.00 0.00 0.00 79 1017.1
20260507025804 57 215 0.0 0.9 0.00 0.00 0.00 79 1017.1
20260507023804 58 215 0.0 0.9 0.00 0.00 0.00 78 1016.8
20260507021805 58 215 0.0 0.0 0.00 0.00 0.00 77 1016.6
20260507013805 59 215 0.0 0.0 0.00 0.00 0.00 76 1016.6
20260507012805 59 215 0.0 0.0 0.00 0.00 0.00 77 1016.6
20260507010804 59 215 0.0 0.0 0.00 0.00 0.00 76 1016.7
20260507005805 59 215 0.0 0.0 0.00 0.00 0.00 78 1016.8
20260507004804 58 215 0.0 0.0 0.00 0.00 0.00 77 1016.9
20260507003804 59 215 0.0 0.9 0.00 0.00 0.00 79 1016.8
20260507002804 58 215 0.0 0.0 0.00 0.00 0.00 78 1016.9
20260506234805 59 215 0.0 0.0 0.00 0.00 0.00 77 1017.0
20260506233805 59 215 0.0 1.7 0.00 0.00 0.00 76 1017.0
20260506232805 59 215 0.0 0.9 0.00 0.00 0.00 76 1017.0
20260506231805 60 215 0.0 0.0 0.00 0.00 0.00 75 1017.0
20260506230805 60 215 0.9 1.7 0.00 0.00 0.00 73 1017.2
20260506225805 60 215 0.0 0.0 0.00 0.00 0.00 72 1017.2
20260506223805 61 215 0.0 0.0 0.00 0.00 0.00 70 1017.1
20260506222804 61 215 0.0 0.9 0.00 0.00 0.00 71 1017.0
20260506220804 61 215 0.0 0.0 0.00 0.00 0.00 70 1017.2
20260506215805 62 215 0.0 0.0 0.00 0.00 0.00 73 1017.2
20260506214804 62 215 0.0 0.0 0.00 0.00 0.00 72 1017.3
20260506213804 61 215 0.0 0.0 0.00 0.00 0.00 69 1017.3
20260506212804 61 215 0.0 0.0 0.00 0.00 0.00 67 1017.3
20260506211804 61 215 0.0 0.0 0.00 0.00 0.00 66 1017.3
20260506210813 62 215 0.0 0.0 0.00 0.00 0.00 65 1017.3
20260506205804 62 215 0.0 0.0 0.00 0.00 0.00 64 1017.2
20260506204804 62 215 0.9 1.7 0.00 0.00 0.00 62 1017.1
20260506203805 63 215 0.0 0.0 0.00 0.00 0.00 62 1017.1
20260506202805 63 215 0.0 0.0 0.00 0.00 0.00 62 1017.2
20260506201804 63 215 0.0 0.9 0.00 0.00 0.00 60 1017.1
20260506200804 63 215 0.0 0.0 0.00 0.00 0.00 61 1017.0
20260506195804 63 215 0.0 0.0 0.00 0.00 0.00 60 1017.1
20260506194804 63 215 0.0 0.0 0.00 0.00 0.00 60 1017.0
20260506193804 63 215 0.0 1.7 0.00 0.00 0.00 62 1016.9
20260506192804 62 215 0.0 1.7 0.00 0.00 0.00 66 1016.9
20260506191806 63 215 0.0 1.7 0.00 0.00 0.00 66 1016.7
20260506190804 63 215 0.9 2.6 0.00 0.00 0.00 67 1016.7
20260506185804 63 215 0.0 1.7 0.00 0.00 0.00 71 1016.6
20260506184804 63 215 0.0 1.7 0.00 0.00 0.00 72 1016.5
20260506183804 63 215 1.7 2.6 0.00 0.00 0.00 72 1016.4
20260506182804 63 215 0.9 2.6 0.00 0.00 0.00 71 1016.4
20260506181804 64 215 1.7 2.6 0.00 0.00 0.00 68 1016.3
20260506180805 64 215 0.0 2.6 0.00 0.00 0.00 66 1016.1
20260506175805 64 135 0.0 2.6 0.00 0.00 0.00 64 1015.9
20260506174804 64 135 0.0 1.7 0.00 0.00 0.00 66 1015.9
20260506172804 64 135 0.0 2.6 0.00 0.00 0.00 66 1015.9
20260506170805 64 135 0.9 2.6 0.00 0.00 0.00 63 1015.7
20260506163804 64 137 1.7 4.3 0.00 0.00 0.00 79 1015.7
20260506160804 64 225 1.7 4.3 0.00 0.00 0.00 82 1015.9
20260506155804 64 225 2.6 4.3 0.00 0.00 0.00 81 1015.9
20260506154804 64 221 0.9 5.2 0.00 0.00 0.00 81 1016.0
20260506152804 65 219 0.9 2.6 0.00 0.00 0.00 76 1016.1
20260506151804 65 219 0.9 4.3 0.00 0.00 0.00 77 1016.1
20260506150804 64 223 0.9 4.3 0.00 0.00 0.00 80 1016.2
20260506145804 64 209 1.7 5.2 0.00 0.00 0.00 78 1016.1
20260506144804 64 134 2.6 5.2 0.00 0.00 0.00 77 1016.1
20260506143804 64 153 0.9 4.3 0.00 0.00 0.00 77 1016.2
20260506142805 65 153 2.6 5.2 0.00 0.00 0.00 76 1016.2
20260506141804 63 153 1.7 6.1 0.00 0.00 0.00 77 1016.2
20260506135804 64 227 1.7 5.2 0.00 0.00 0.00 73 1016.1
20260506133804 64 196 1.7 6.1 0.00 0.00 0.00 77 1016.2
20260506132804 64 218 4.3 5.2 0.00 0.00 0.00 77 1016.3
20260506131805 64 208 1.7 6.1 0.00 0.00 0.00 78 1016.4
20260506125804 66 219 1.7 6.1 0.00 0.00 0.00 75 1016.4
20260506124805 65 199 1.7 6.1 0.00 0.00 0.00 77 1016.4
20260506123804 65 219 2.6 6.1 0.00 0.00 0.00 78 1016.5
20260506122805 65 187 1.7 5.2 0.00 0.00 0.00 75 1016.6